User: anonymous   Login
Location: Unspecified
(0.0000°N, 0.0000°E)
Time: 01:02:00
(UTC+00:00)
Language:

CARTOSAT 2B - Orbit

View from above orbital plane
View from above orbital plane
View from above satellite
View from above satellite

Ground track
Ground track

The orbit data is extracted from the following two-line orbital elements,

1 36795U 10035A   19046.74580628  .00000170  00000-0  30431-4 0  9992
2 36795  97.9877 106.8732 0013354 217.7463 142.2872 14.78634299464117
Epoch (UTC): 15 February 2019 17:53:57
Eccentricity: 0.0013354
inclination: 97.9877°
perigee height: 624 km
apogee height: 643 km
right ascension of ascending node: 106.8732°
argument of perigee: 217.7463°
revolutions per day: 14.78634299
mean anomaly at epoch: 142.2872°
orbit number at epoch: 46411

The dashed part of the orbit path shows where the satellite is in the earth's shadow,  

DLR